Juneau, WI

9:05 PM CST on December 07, 2019 (GMT -0600)
Dodge County

Weather History for KUNU - October, 2019

Change the Weather History Date:

Tuesday, October 8, 2019

  Actual Average Record
Temperature  
Mean Temperature 54 °F -  
Max Temperature 67 °F 61 °F 82 °F (2007)
Min Temperature 41 °F 42 °F 26 °F (1987)
Degree Days  
Heating Degree Days 11    
Growing Degree Days 4 (Base 50)    
Moisture  
Dew Point 43 °F    
Average Humidity 72    
Maximum Humidity 99    
Minimum Humidity 38    
Precipitation  
Precipitation 0.00 in - - ()
Sea Level Pressure  
Sea Level Pressure 30.18 in    
Wind  
Wind Speed 2 mph ()    
Max Wind Speed 8 mph    
Max Gust Speed -    
Visibility 10.0 miles    
Events      
Averages and records for this station are not official NWS values.
T = Trace of Precipitation, MM = Missing Value Source: Averaged Metar Reports

Daily Weather History Graph

Daily Weather History Graph

Search for Another Location

Airport or City:

Astronomy

Oct. 08, 2019 Rise Set
Actual Time 7:00 AM CDT 6:23 PM CDT
Civil Twilight 6:31 AM CDT 6:52 PM CDT
Nautical Twilight 5:58 AM CDT 7:25 PM CDT
Astronomical Twilight 5:25 AM CDT 7:58 PM CDT
Moon 4:33 PM CDT 1:37 AM CDT
Length of Visible Light 12h 20m
Length of Day
11h 23m
Waxing Gibbous, 78% of the Moon is Illuminated
Oct 8
Waxing Gibbous
Oct 13
Full
Oct 21
Last Quarter
Oct 27
New
Nov 4
First Quarter

Hourly Weather History & Observations

Time (CDT) Temp. Dew Point Humidity Pressure Visibility Wind Dir Wind Speed Gust Speed Precip Events Conditions
12:15 AM 44.8 °F 43.9 °F 97% 30.20 in 10.0 mi Calm Calm - N/A   Clear
12:35 AM 43.7 °F 43.0 °F 97% 30.20 in 10.0 mi Calm Calm - N/A   Clear
12:55 AM 43.3 °F 42.8 °F 98% 30.20 in 10.0 mi Calm Calm - N/A   Clear
1:15 AM 42.3 °F 41.9 °F 99% 30.20 in 10.0 mi Calm Calm - N/A   Clear
1:35 AM 43.0 °F 42.8 °F 99% 30.21 in 10.0 mi Calm Calm - N/A   Clear
1:55 AM 43.0 °F 42.6 °F 99% 30.21 in 10.0 mi Calm Calm - N/A   Clear
2:15 AM 42.4 °F 42.1 °F 99% 30.21 in 10.0 mi Calm Calm - N/A   Clear
2:35 AM 41.9 °F 41.5 °F 99% 30.21 in 10.0 mi Calm Calm - N/A   Clear
2:55 AM 43.2 °F 43.0 °F 99% 30.21 in 7.0 mi Calm Calm - N/A   Clear
3:15 AM 41.9 °F 41.7 °F 99% 30.21 in 10.0 mi Calm Calm - N/A   Clear
3:55 AM 43.7 °F 42.8 °F 97% 30.22 in 10.0 mi Calm Calm - N/A   Clear
4:15 AM 42.8 °F 42.3 °F 98% 30.22 in 10.0 mi Calm Calm - N/A   Clear
4:35 AM 41.9 °F 41.5 °F 99% 30.22 in 10.0 mi Calm Calm - N/A   Clear
4:55 AM 42.3 °F 41.5 °F 97% 30.22 in 10.0 mi Calm Calm - N/A   Clear
5:15 AM 43.0 °F 41.9 °F 96% 30.22 in 10.0 mi Calm Calm - N/A   Clear
5:35 AM 42.1 °F 41.4 °F 97% 30.22 in 10.0 mi Calm Calm - N/A   Clear
5:55 AM 41.5 °F 41.2 °F 99% 30.22 in 10.0 mi Calm Calm - N/A   Clear
6:15 AM 42.3 °F 41.7 °F 98% 30.23 in 10.0 mi Calm Calm - N/A   Clear
6:35 AM 42.6 °F 41.7 °F 97% 30.23 in 10.0 mi Calm Calm - N/A   Clear
6:55 AM 42.8 °F 41.7 °F 96% 30.23 in 10.0 mi Calm Calm - N/A   Clear
7:15 AM 42.1 °F 41.4 °F 97% 30.23 in 10.0 mi Calm Calm - N/A   Clear
7:35 AM 41.9 °F 41.4 °F 98% 30.23 in 10.0 mi Calm Calm - N/A   Clear
7:55 AM 42.3 °F 41.9 °F 99% 30.23 in 10.0 mi Calm Calm - N/A   Clear
8:15 AM 44.8 °F 44.2 °F 98% 30.23 in 10.0 mi Calm Calm - N/A   Clear
8:35 AM 46.9 °F 45.1 °F 93% 30.23 in 10.0 mi Calm Calm - N/A   Clear
8:55 AM 50.2 °F 45.9 °F 85% 30.24 in 10.0 mi Calm Calm - N/A   Clear
9:15 AM 52.2 °F 45.3 °F 78% 30.24 in 10.0 mi Calm Calm - N/A   Clear
9:35 AM 54.0 °F 44.8 °F 71% 30.24 in 10.0 mi Calm Calm - N/A   Clear
9:55 AM 55.9 °F 46.0 °F 69% 30.24 in 10.0 mi SSE 3.5 mph - N/A   Clear
10:15 AM 57.9 °F 44.6 °F 61% 30.24 in 10.0 mi SSE 3.5 mph - N/A   Clear
10:35 AM 59.2 °F 45.0 °F 59% 30.23 in 10.0 mi SSE 5.8 mph - N/A   Clear
10:55 AM 60.4 °F 44.2 °F 55% 30.23 in 10.0 mi South 5.8 mph - N/A   Clear
11:15 AM 61.9 °F 44.2 °F 52% 30.22 in 10.0 mi South 4.6 mph - N/A   Clear
11:35 AM 62.8 °F 44.4 °F 51% 30.22 in 10.0 mi SE 5.8 mph - N/A   Clear
11:55 AM 63.9 °F 43.7 °F 48% 30.22 in 10.0 mi South 6.9 mph - N/A   Clear
12:15 PM 64.2 °F 42.3 °F 45% 30.21 in 10.0 mi South 6.9 mph - N/A   Clear
12:35 PM 64.9 °F 42.8 °F 45% 30.20 in 10.0 mi South 8.1 mph - N/A   Clear
12:55 PM 65.3 °F 42.3 °F 43% 30.19 in 10.0 mi SSE 8.1 mph - N/A   Clear
1:15 PM 65.8 °F 41.7 °F 41% 30.19 in 10.0 mi South 4.6 mph - N/A   Clear
1:35 PM 66.2 °F 42.1 °F 41% 30.18 in 10.0 mi SSW 8.1 mph - N/A   Clear
1:55 PM 66.4 °F 41.7 °F 41% 30.17 in 10.0 mi South 4.6 mph - N/A   Clear
2:15 PM 66.7 °F 41.2 °F 39% 30.16 in 10.0 mi SSW 4.6 mph - N/A   Clear
2:35 PM 66.6 °F 40.5 °F 38% 30.16 in 10.0 mi SW 3.5 mph - N/A   Clear
2:55 PM 66.6 °F 40.8 °F 39% 30.15 in 10.0 mi South 4.6 mph - N/A   Clear
3:15 PM 67.1 °F 41.4 °F 39% 30.15 in 10.0 mi SE 6.9 mph - N/A   Clear
3:35 PM 67.1 °F 41.5 °F 39% 30.15 in 10.0 mi SSE 5.8 mph - N/A   Clear
3:55 PM 66.9 °F 41.2 °F 39% 30.14 in 10.0 mi SSE 5.8 mph - N/A   Clear
4:15 PM 66.7 °F 43.0 °F 42% 30.13 in 10.0 mi SSE 8.1 mph - N/A   Clear
4:35 PM 66.4 °F 41.2 °F 40% 30.13 in 10.0 mi SSE 5.8 mph - N/A   Clear
4:55 PM 66.4 °F 41.7 °F 41% 30.13 in 10.0 mi South 8.1 mph - N/A   Clear
5:15 PM 65.8 °F 40.8 °F 40% 30.13 in 10.0 mi South 5.8 mph - N/A   Clear
5:35 PM 64.8 °F 42.4 °F 44% 30.12 in 10.0 mi South 3.5 mph - N/A   Clear
5:55 PM 63.0 °F 42.8 °F 48% 30.12 in 10.0 mi Calm Calm - N/A   Clear
6:15 PM 61.0 °F 43.3 °F 52% 30.12 in 10.0 mi Calm Calm - N/A   Clear
6:35 PM 58.8 °F 43.3 °F 56% 30.12 in 10.0 mi Calm Calm - N/A   Clear
6:55 PM 57.4 °F 43.7 °F 60% 30.12 in 10.0 mi Calm Calm - N/A   Clear
7:35 PM 53.6 °F 45.5 °F 74% 30.13 in 10.0 mi SE 3.5 mph - N/A   Clear
7:55 PM 52.7 °F 45.1 °F 75% 30.13 in 10.0 mi ESE 4.6 mph - N/A   Clear
8:15 PM 52.9 °F 44.8 °F 74% 30.13 in 10.0 mi SE 5.8 mph - N/A   Clear
8:35 PM 52.2 °F 44.6 °F 75% 30.13 in 10.0 mi SE 5.8 mph - N/A   Clear
8:55 PM 51.8 °F 43.9 °F 74% 30.13 in 10.0 mi SE 4.6 mph - N/A   Clear
9:15 PM 51.1 °F 43.7 °F 76% 30.13 in 10.0 mi SE 6.9 mph - N/A   Clear
9:35 PM 51.8 °F 43.3 °F 73% 30.13 in 10.0 mi SE 6.9 mph - N/A   Clear
9:55 PM 50.9 °F 43.2 °F 75% 30.13 in 10.0 mi SE 5.8 mph - N/A   Clear
10:15 PM - - N/A% 30.13 in 10.0 mi SE 6.9 mph - N/A   Clear
10:35 PM 50.9 °F 43.0 °F 74% 30.13 in 10.0 mi SE 6.9 mph - N/A   Clear
10:55 PM 50.2 °F 43.0 °F 76% 30.13 in 10.0 mi SE 6.9 mph - N/A   Clear
11:15 PM 50.2 °F 43.0 °F 76% 30.13 in 10.0 mi SE 5.8 mph - N/A   Clear
11:55 PM 50.2 °F 43.7 °F 78% 30.13 in 10.0 mi SE 5.8 mph - N/A   Clear